Time,TemperatureF,DewpointF,PressureIn,WindDirection,WindDirectionDegrees,WindSpeedMPH,WindSpeedGustMPH,Humidity,HourlyPrecipIn,Conditions,Clouds,dailyrainin,SoftwareType,DateUTC
2013-02-10 00:00:00,22.5,4.8,30.06,NNE,22,2.9,2.9,46,0.00,,---,0.00,VWS V14.01,2013-02-10 05:00:00,
2013-02-10 00:05:00,22.5,4.8,30.06,NNE,22,4.3,4.3,46,0.00,,---,0.00,VWS V14.01,2013-02-10 05:05:00,
2013-02-10 00:10:00,22.3,4.7,30.06,NE,45,2.7,3.4,46,0.00,,---,0.00,VWS V14.01,2013-02-10 05:10:00,
2013-02-10 00:15:00,22.1,4.5,30.09,NNW,338,3.1,3.1,46,0.00,,---,0.00,VWS V14.01,2013-02-10 05:15:00,
2013-02-10 00:20:00,22.1,4.5,30.09,NNE,22,1.6,3.1,46,0.00,,---,0.00,VWS V14.01,2013-02-10 05:20:00,
2013-02-10 00:25:00,22.1,4.5,30.09,NNW,338,2.9,2.9,46,0.00,,---,0.00,VWS V14.01,2013-02-10 05:25:00,
2013-02-10 00:30:00,22.1,4.5,30.09,NNW,338,5.4,5.4,46,0.00,,---,0.00,VWS V14.01,2013-02-10 05:30:00,
2013-02-10 00:35:00,21.9,4.3,30.09,ENE,68,6.0,6.0,46,0.00,,---,0.00,VWS V14.01,2013-02-10 05:35:00,
2013-02-10 00:40:00,21.9,4.3,30.09,NNE,22,2.9,6.9,46,0.00,,---,0.00,VWS V14.01,2013-02-10 05:40:00,
2013-02-10 00:45:00,21.7,4.6,30.09,NNW,338,3.4,3.4,47,0.00,,---,0.00,VWS V14.01,2013-02-10 05:45:00,
2013-02-10 00:50:00,21.7,4.2,30.09,West,270,3.8,3.8,46,0.00,,---,0.00,VWS V14.01,2013-02-10 05:50:00,
2013-02-10 00:55:00,21.7,4.2,30.09,ENE,68,4.0,4.0,46,0.00,,---,0.00,VWS V14.01,2013-02-10 05:55:00,
2013-02-10 01:00:00,21.6,4.5,30.09,NNW,338,3.8,3.8,47,0.00,,---,0.00,VWS V14.01,2013-02-10 06:00:00,
2013-02-10 01:05:00,21.6,4.0,30.09,NNE,22,3.4,3.6,46,0.00,,---,0.00,VWS V14.01,2013-02-10 06:05:00,
2013-02-10 01:10:00,21.4,3.8,30.09,NNW,338,3.6,3.6,46,0.00,,---,0.00,VWS V14.01,2013-02-10 06:10:00,
2013-02-10 01:15:00,21.4,3.8,30.09,North,0,3.1,3.1,46,0.00,,---,0.00,VWS V14.01,2013-02-10 06:15:00,
2013-02-10 01:20:00,21.2,4.1,30.09,NNW,338,4.0,4.0,47,0.00,,---,0.00,VWS V14.01,2013-02-10 06:20:00,
2013-02-10 01:25:00,21.2,4.1,30.09,NNW,338,3.8,3.8,47,0.00,,---,0.00,VWS V14.01,2013-02-10 06:25:00,
2013-02-10 01:30:00,21.0,4.0,30.09,NNE,22,4.7,4.7,47,0.00,,---,0.00,VWS V14.01,2013-02-10 06:30:00,
2013-02-10 01:35:00,21.0,4.0,30.09,ENE,68,3.4,3.4,47,0.00,,---,0.00,VWS V14.01,2013-02-10 06:35:00,
2013-02-10 01:40:00,20.8,3.8,30.09,East,90,2.9,2.9,47,0.00,,---,0.00,VWS V14.01,2013-02-10 06:40:00,
2013-02-10 01:45:00,20.8,3.8,30.12,ENE,68,3.1,3.1,47,0.00,,---,0.00,VWS V14.01,2013-02-10 06:45:00,
2013-02-10 01:50:00,20.8,4.2,30.12,NNW,338,3.6,3.6,48,0.00,,---,0.00,VWS V14.01,2013-02-10 06:50:00,
2013-02-10 01:55:00,20.8,4.2,30.12,NNE,22,3.4,3.4,48,0.00,,---,0.00,VWS V14.01,2013-02-10 06:55:00,
2013-02-10 02:00:00,20.7,4.1,30.12,NNW,338,4.0,4.0,48,0.00,,---,0.00,VWS V14.01,2013-02-10 07:00:00,
2013-02-10 02:05:00,20.7,4.1,30.12,NNW,338,2.0,2.0,48,0.00,,---,0.00,VWS V14.01,2013-02-10 07:05:00,
2013-02-10 02:10:00,20.5,3.9,30.12,NNE,22,2.9,2.9,48,0.00,,---,0.00,VWS V14.01,2013-02-10 07:10:00,
2013-02-10 02:15:00,20.5,3.9,30.12,NNW,338,2.7,2.7,48,0.00,,---,0.00,VWS V14.01,2013-02-10 07:15:00,
2013-02-10 02:20:00,20.5,3.9,30.12,NNW,338,5.8,5.8,48,0.00,,---,0.00,VWS V14.01,2013-02-10 07:20:00,
2013-02-10 02:25:00,20.5,3.9,30.12,ENE,68,2.5,2.5,48,0.00,,---,0.00,VWS V14.01,2013-02-10 07:25:00,
2013-02-10 02:30:00,20.3,3.8,30.12,NNW,338,2.5,4.3,48,0.00,,---,0.00,VWS V14.01,2013-02-10 07:30:00,
2013-02-10 02:35:00,20.3,4.2,30.12,NNE,22,3.6,3.6,49,0.00,,---,0.00,VWS V14.01,2013-02-10 07:35:00,
2013-02-10 02:40:00,20.1,4.0,30.12,North,0,4.0,4.0,49,0.00,,---,0.00,VWS V14.01,2013-02-10 07:40:00,
2013-02-10 02:45:00,20.1,4.0,30.12,NNW,338,2.5,2.5,49,0.00,,---,0.00,VWS V14.01,2013-02-10 07:45:00,
2013-02-10 02:50:00,20.1,4.0,30.12,WNW,292,3.1,3.1,49,0.00,,---,0.00,VWS V14.01,2013-02-10 07:50:00,
2013-02-10 02:55:00,19.9,3.9,30.12,NNE,22,1.3,6.0,49,0.00,,---,0.00,VWS V14.01,2013-02-10 07:55:00,
2013-02-10 03:00:00,19.9,4.3,30.12,NNW,338,4.9,4.9,50,0.00,,---,0.00,VWS V14.01,2013-02-10 08:00:00,
2013-02-10 03:05:00,19.8,4.1,30.12,NE,45,3.1,3.1,50,0.00,,---,0.00,VWS V14.01,2013-02-10 08:05:00,
2013-02-10 03:10:00,19.8,4.1,30.12,NNE,22,2.5,2.5,50,0.00,,---,0.00,VWS V14.01,2013-02-10 08:10:00,
2013-02-10 03:15:00,19.8,4.1,30.12,NNW,338,2.7,2.7,50,0.00,,---,0.00,VWS V14.01,2013-02-10 08:15:00,
2013-02-10 03:20:00,19.6,4.4,30.12,WNW,292,3.1,3.1,51,0.00,,---,0.00,VWS V14.01,2013-02-10 08:20:00,
2013-02-10 03:25:00,19.6,4.4,30.12,NNE,22,2.0,2.0,51,0.00,,---,0.00,VWS V14.01,2013-02-10 08:25:00,
2013-02-10 03:30:00,19.4,4.2,30.12,NNW,338,2.5,2.5,51,0.00,,---,0.00,VWS V14.01,2013-02-10 08:30:00,
2013-02-10 03:35:00,19.4,4.7,30.12,NNE,22,2.7,4.0,52,0.00,,---,0.00,VWS V14.01,2013-02-10 08:35:00,
2013-02-10 03:40:00,19.2,4.5,30.12,NE,45,2.7,4.3,52,0.00,,---,0.00,VWS V14.01,2013-02-10 08:40:00,
2013-02-10 03:45:00,19.2,4.5,30.12,NNE,22,2.5,2.5,52,0.00,,---,0.00,VWS V14.01,2013-02-10 08:45:00,
2013-02-10 03:50:00,19.2,4.5,30.12,NNW,338,3.4,3.4,52,0.00,,---,0.00,VWS V14.01,2013-02-10 08:50:00,
2013-02-10 03:55:00,19.2,4.9,30.12,NNW,338,3.1,3.6,53,0.00,,---,0.00,VWS V14.01,2013-02-10 08:55:00,
2013-02-10 04:00:00,19.0,4.7,30.12,NNW,338,2.9,2.9,53,0.00,,---,0.00,VWS V14.01,2013-02-10 09:00:00,
2013-02-10 04:05:00,19.0,4.7,30.12,WNW,292,3.6,3.6,53,0.00,,---,0.00,VWS V14.01,2013-02-10 09:05:00,
2013-02-10 04:10:00,18.9,4.6,30.12,NNW,338,0.9,1.3,53,0.00,,---,0.00,VWS V14.01,2013-02-10 09:10:00,
2013-02-10 04:15:00,18.7,4.4,30.15,NNW,338,1.6,2.0,53,0.00,,---,0.00,VWS V14.01,2013-02-10 09:15:00,
2013-02-10 04:20:00,18.5,4.6,30.15,NNW,338,1.3,4.0,54,0.00,,---,0.00,VWS V14.01,2013-02-10 09:20:00,
2013-02-10 04:25:00,18.5,4.6,30.15,NNW,338,2.7,2.7,54,0.00,,---,0.00,VWS V14.01,2013-02-10 09:25:00,
2013-02-10 04:30:00,18.5,4.6,30.12,NNW,338,2.7,2.7,54,0.00,,---,0.00,VWS V14.01,2013-02-10 09:30:00,
2013-02-10 04:35:00,18.3,4.5,30.12,North,0,1.1,2.5,54,0.00,,---,0.00,VWS V14.01,2013-02-10 09:35:00,
2013-02-10 04:40:00,18.3,4.5,30.12,NNW,338,0.9,1.6,54,0.00,,---,0.00,VWS V14.01,2013-02-10 09:40:00,
2013-02-10 04:45:00,18.3,4.5,30.15,NNW,338,1.6,2.9,54,0.00,,---,0.00,VWS V14.01,2013-02-10 09:45:00,
2013-02-10 04:50:00,18.1,4.3,30.15,NW,315,2.2,2.2,54,0.00,,---,0.00,VWS V14.01,2013-02-10 09:50:00,
2013-02-10 04:55:00,18.3,4.5,30.15,WNW,292,2.5,2.7,54,0.00,,---,0.00,VWS V14.01,2013-02-10 09:55:00,
2013-02-10 05:00:00,18.1,4.7,30.15,WNW,292,3.4,3.6,55,0.00,,---,0.00,VWS V14.01,2013-02-10 10:00:00,
2013-02-10 05:05:00,18.3,4.9,30.15,NW,315,2.9,3.1,55,0.00,,---,0.00,VWS V14.01,2013-02-10 10:05:00,
2013-02-10 05:10:00,18.1,4.7,30.15,NNW,338,2.0,2.0,55,0.00,,---,0.00,VWS V14.01,2013-02-10 10:10:00,
2013-02-10 05:15:00,18.0,4.5,30.15,NNE,22,1.3,1.3,55,0.00,,---,0.00,VWS V14.01,2013-02-10 10:15:00,
2013-02-10 05:20:00,17.8,4.4,30.15,NNW,338,3.1,3.1,55,0.00,,---,0.00,VWS V14.01,2013-02-10 10:20:00,
2013-02-10 05:25:00,17.4,4.0,30.15,WSW,248,0.0,0.0,55,0.00,,---,0.00,VWS V14.01,2013-02-10 10:25:00,
2013-02-10 05:30:00,17.4,4.4,30.15,NW,315,1.3,1.3,56,0.00,,---,0.00,VWS V14.01,2013-02-10 10:30:00,
2013-02-10 05:35:00,17.1,4.1,30.15,NW,315,0.0,0.0,56,0.00,,---,0.00,VWS V14.01,2013-02-10 10:35:00,
2013-02-10 05:40:00,16.9,3.9,30.15,NNW,338,0.0,0.0,56,0.00,,---,0.00,VWS V14.01,2013-02-10 10:40:00,
2013-02-10 05:45:00,16.7,3.7,30.15,NE,45,0.9,1.1,56,0.00,,---,0.00,VWS V14.01,2013-02-10 10:45:00,
2013-02-10 05:50:00,16.7,4.1,30.15,North,0,0.0,0.0,57,0.00,,---,0.00,VWS V14.01,2013-02-10 10:50:00,
2013-02-10 05:55:00,16.7,4.1,30.15,NNW,338,0.0,0.0,57,0.00,,---,0.00,VWS V14.01,2013-02-10 10:55:00,
2013-02-10 06:00:00,16.3,3.8,30.15,NNW,338,0.0,0.9,57,0.00,,---,0.00,VWS V14.01,2013-02-10 11:00:00,
2013-02-10 06:05:00,16.2,3.6,30.15,NW,315,1.6,1.6,57,0.00,,---,0.00,VWS V14.01,2013-02-10 11:05:00,
2013-02-10 06:10:00,16.2,3.6,30.15,NW,315,0.0,0.0,57,0.00,,---,0.00,VWS V14.01,2013-02-10 11:10:00,
2013-02-10 06:15:00,15.8,3.7,30.15,NW,315,0.0,0.0,58,0.00,,---,0.00,VWS V14.01,2013-02-10 11:15:00,
2013-02-10 06:20:00,15.8,3.7,30.15,NW,315,0.0,1.6,58,0.00,,---,0.00,VWS V14.01,2013-02-10 11:20:00,
2013-02-10 06:25:00,15.4,3.3,30.15,WNW,292,1.1,1.6,58,0.00,,---,0.00,VWS V14.01,2013-02-10 11:25:00,
2013-02-10 06:30:00,15.4,3.3,30.15,WNW,292,1.3,2.0,58,0.00,,---,0.00,VWS V14.01,2013-02-10 11:30:00,
2013-02-10 06:35:00,15.4,3.3,30.15,WNW,292,1.6,1.6,58,0.00,,---,0.00,VWS V14.01,2013-02-10 11:35:00,
2013-02-10 06:40:00,15.4,3.3,30.15,WNW,292,0.9,2.5,58,0.00,,---,0.00,VWS V14.01,2013-02-10 11:40:00,
2013-02-10 06:45:00,15.4,3.3,30.15,West,270,0.0,1.3,58,0.00,,---,0.00,VWS V14.01,2013-02-10 11:45:00,
2013-02-10 06:50:00,15.4,3.3,30.15,West,270,0.0,0.9,58,0.00,,---,0.00,VWS V14.01,2013-02-10 11:50:00,
2013-02-10 06:55:00,15.4,3.3,30.15,WNW,292,0.9,0.9,58,0.00,,---,0.00,VWS V14.01,2013-02-10 11:55:00,
2013-02-10 07:00:00,15.3,3.2,30.15,NNW,338,0.0,0.0,58,0.00,,---,0.00,VWS V14.01,2013-02-10 12:00:00,
2013-02-10 07:05:00,15.4,3.7,30.15,WNW,292,1.3,1.3,59,0.00,,---,0.00,VWS V14.01,2013-02-10 12:05:00,
2013-02-10 07:10:00,15.4,3.3,30.15,WNW,292,2.7,2.9,58,0.00,,---,0.00,VWS V14.01,2013-02-10 12:10:00,
2013-02-10 07:15:00,15.8,4.0,30.18,WNW,292,2.0,3.1,59,0.00,,---,0.00,VWS V14.01,2013-02-10 12:15:00,
2013-02-10 07:20:00,15.8,4.0,30.18,WNW,292,2.7,2.7,59,0.00,,---,0.00,VWS V14.01,2013-02-10 12:20:00,
2013-02-10 07:25:00,16.0,4.2,30.18,NW,315,2.2,2.2,59,0.00,,---,0.00,VWS V14.01,2013-02-10 12:25:00,
2013-02-10 07:30:00,16.3,4.5,30.18,WNW,292,3.4,3.4,59,0.00,,---,0.00,VWS V14.01,2013-02-10 12:30:00,
2013-02-10 07:35:00,16.5,4.3,30.18,WNW,292,2.0,3.6,58,0.00,,---,0.00,VWS V14.01,2013-02-10 12:35:00,
2013-02-10 07:40:00,16.7,4.5,30.18,WNW,292,0.0,0.0,58,0.00,,---,0.00,VWS V14.01,2013-02-10 12:40:00,
2013-02-10 07:45:00,17.4,5.2,30.21,WNW,292,2.2,2.9,58,0.00,,---,0.00,VWS V14.01,2013-02-10 12:45:00,
2013-02-10 07:50:00,17.6,5.3,30.21,NW,315,2.5,2.5,58,0.00,,---,0.00,VWS V14.01,2013-02-10 12:50:00,
2013-02-10 07:55:00,18.1,5.9,30.21,NW,315,4.3,4.3,58,0.00,,---,0.00,VWS V14.01,2013-02-10 12:55:00,
2013-02-10 08:00:00,18.5,5.8,30.21,NW,315,3.1,3.1,57,0.00,,---,0.00,VWS V14.01,2013-02-10 13:00:00,
2013-02-10 08:05:00,18.9,6.2,30.21,WNW,292,3.8,3.8,57,0.00,,---,0.00,VWS V14.01,2013-02-10 13:05:00,
2013-02-10 08:10:00,19.4,6.7,30.21,WNW,292,3.4,3.4,57,0.00,,---,0.00,VWS V14.01,2013-02-10 13:10:00,
2013-02-10 08:15:00,20.1,7.3,30.21,NNW,338,3.6,3.6,57,0.00,,---,0.00,VWS V14.01,2013-02-10 13:15:00,
2013-02-10 08:20:00,20.3,7.1,30.21,NW,315,2.2,2.9,56,0.00,,---,0.00,VWS V14.01,2013-02-10 13:20:00,
2013-02-10 08:25:00,20.7,7.5,30.21,NE,45,1.6,1.6,56,0.00,,---,0.00,VWS V14.01,2013-02-10 13:25:00,
2013-02-10 08:30:00,21.7,8.1,30.21,ENE,68,2.0,3.4,55,0.00,,---,0.00,VWS V14.01,2013-02-10 13:30:00,
2013-02-10 08:35:00,22.3,8.2,30.21,NNW,338,4.0,4.0,54,0.00,,---,0.00,VWS V14.01,2013-02-10 13:35:00,
2013-02-10 08:40:00,22.8,8.7,30.21,NW,315,2.5,2.5,54,0.00,,---,0.00,VWS V14.01,2013-02-10 13:40:00,
2013-02-10 08:45:00,24.1,9.4,30.21,NW,315,3.4,3.4,53,0.00,,---,0.00,VWS V14.01,2013-02-10 13:45:00,
2013-02-10 08:50:00,24.6,9.9,30.21,NW,315,1.6,1.6,53,0.00,,---,0.00,VWS V14.01,2013-02-10 13:50:00,
2013-02-10 08:55:00,24.6,9.5,30.21,NNW,338,1.1,1.3,52,0.00,,---,0.00,VWS V14.01,2013-02-10 13:55:00,
2013-02-10 09:00:00,24.6,9.5,30.21,NNW,338,2.5,3.8,52,0.00,,---,0.00,VWS V14.01,2013-02-10 14:00:00,
2013-02-10 09:05:00,25.0,9.9,30.21,NNE,22,2.7,2.7,52,0.00,,---,0.00,VWS V14.01,2013-02-10 14:05:00,
2013-02-10 09:10:00,25.0,9.4,30.21,NNW,338,1.3,1.3,51,0.00,,---,0.00,VWS V14.01,2013-02-10 14:10:00,
2013-02-10 09:15:00,25.7,10.1,30.24,NNE,22,2.5,2.5,51,0.00,,---,0.00,VWS V14.01,2013-02-10 14:15:00,
2013-02-10 09:20:00,26.8,11.1,30.24,North,0,2.7,2.9,51,0.00,,---,0.00,VWS V14.01,2013-02-10 14:20:00,
2013-02-10 09:25:00,27.9,11.6,30.24,NNW,338,4.0,4.0,50,0.00,,---,0.00,VWS V14.01,2013-02-10 14:25:00,
2013-02-10 09:30:00,29.1,12.8,30.24,NNW,338,0.0,2.7,50,0.00,,---,0.00,VWS V14.01,2013-02-10 14:30:00,
2013-02-10 09:35:00,29.3,12.1,30.24,NW,315,1.1,3.6,48,0.00,,---,0.00,VWS V14.01,2013-02-10 14:35:00,
2013-02-10 09:40:00,30.2,13.4,30.24,West,270,2.0,4.0,49,0.00,,---,0.00,VWS V14.01,2013-02-10 14:40:00,
2013-02-10 09:45:00,30.6,12.7,30.24,WNW,292,1.6,2.5,47,0.00,,---,0.00,VWS V14.01,2013-02-10 14:45:00,
2013-02-10 09:50:00,30.7,12.9,30.24,West,270,2.2,2.9,47,0.00,,---,0.00,VWS V14.01,2013-02-10 14:50:00,
2013-02-10 09:55:00,32.0,14.1,30.24,NNW,338,2.9,3.6,47,0.00,,---,0.00,VWS V14.01,2013-02-10 14:55:00,
2013-02-10 10:00:00,31.1,11.8,30.24,WNW,292,2.5,2.5,44,0.00,,---,0.00,VWS V14.01,2013-02-10 15:00:00,
2013-02-10 10:05:00,32.7,14.2,30.24,NW,315,3.4,4.7,46,0.00,,---,0.00,VWS V14.01,2013-02-10 15:05:00,
2013-02-10 10:10:00,34.0,15.4,30.24,NNW,338,2.7,2.7,46,0.00,,---,0.00,VWS V14.01,2013-02-10 15:10:00,
2013-02-10 10:15:00,34.9,15.7,30.21,NW,315,4.0,4.0,45,0.00,,---,0.00,VWS V14.01,2013-02-10 15:15:00,
2013-02-10 10:20:00,35.8,15.5,30.21,NNW,338,2.0,2.0,43,0.00,,---,0.00,VWS V14.01,2013-02-10 15:20:00,
2013-02-10 10:25:00,35.4,14.6,30.21,North,0,2.5,3.1,42,0.00,,---,0.00,VWS V14.01,2013-02-10 15:25:00,
2013-02-10 10:30:00,36.9,15.9,30.24,WNW,292,1.6,3.6,42,0.00,,---,0.00,VWS V14.01,2013-02-10 15:30:00,
2013-02-10 10:35:00,36.9,15.9,30.24,NW,315,2.0,2.0,42,0.00,,---,0.00,VWS V14.01,2013-02-10 15:35:00,
2013-02-10 10:40:00,38.7,18.1,30.24,WNW,292,1.6,2.0,43,0.00,,---,0.00,VWS V14.01,2013-02-10 15:40:00,
2013-02-10 10:45:00,39.4,18.2,30.24,NNW,338,2.0,2.0,42,0.00,,---,0.00,VWS V14.01,2013-02-10 15:45:00,
2013-02-10 10:50:00,38.8,16.6,30.24,NNE,22,2.9,2.9,40,0.00,,---,0.00,VWS V14.01,2013-02-10 15:50:00,
2013-02-10 10:55:00,40.6,18.2,30.24,ENE,68,2.5,2.5,40,0.00,,---,0.00,VWS V14.01,2013-02-10 15:55:00,
2013-02-10 11:00:00,40.6,18.2,30.21,NE,45,1.3,2.2,40,0.00,,---,0.00,VWS V14.01,2013-02-10 16:00:00,
2013-02-10 11:05:00,39.0,15.0,30.21,ENE,68,4.0,4.0,37,0.00,,---,0.00,VWS V14.01,2013-02-10 16:05:00,
2013-02-10 11:10:00,38.7,15.3,30.21,NNW,338,2.7,2.7,38,0.00,,---,0.00,VWS V14.01,2013-02-10 16:10:00,
2013-02-10 11:15:00,39.9,17.0,30.21,WSW,248,2.7,2.9,39,0.00,,---,0.00,VWS V14.01,2013-02-10 16:15:00,
2013-02-10 11:20:00,42.1,18.9,30.21,WSW,248,2.9,2.9,39,0.00,,---,0.00,VWS V14.01,2013-02-10 16:20:00,
2013-02-10 11:25:00,42.3,19.1,30.21,ENE,68,2.9,2.9,39,0.00,,---,0.00,VWS V14.01,2013-02-10 16:25:00,
2013-02-10 11:30:00,41.7,18.6,30.21,SSW,202,1.6,1.6,39,0.00,,---,0.00,VWS V14.01,2013-02-10 16:30:00,
2013-02-10 11:35:00,41.2,17.5,30.21,WNW,292,0.9,2.0,38,0.00,,---,0.00,VWS V14.01,2013-02-10 16:35:00,
2013-02-10 11:39:00,40.8,15.9,30.21,NE,45,2.5,3.1,36,0.00,,---,0.00,VWS V14.01,2013-02-10 16:39:00,
2013-02-10 11:45:00,40.8,16.6,30.21,ENE,68,2.7,2.7,37,0.00,,---,0.00,VWS V14.01,2013-02-10 16:45:00,
2013-02-10 11:50:00,41.7,17.4,30.21,ENE,68,2.9,2.9,37,0.00,,---,0.00,VWS V14.01,2013-02-10 16:50:00,
2013-02-10 11:54:00,40.8,14.6,30.21,NNE,22,2.5,2.5,34,0.00,,---,0.00,VWS V14.01,2013-02-10 16:54:00,
2013-02-10 11:59:00,41.0,14.8,30.18,NNW,338,0.9,1.3,34,0.00,,---,0.00,VWS V14.01,2013-02-10 16:59:00,
2013-02-10 12:04:00,41.0,14.8,30.18,ENE,68,3.6,3.6,34,0.00,,---,0.00,VWS V14.01,2013-02-10 17:04:00,
2013-02-10 12:09:00,41.7,15.4,30.18,NNW,338,2.0,3.4,34,0.00,,---,0.00,VWS V14.01,2013-02-10 17:09:00,
2013-02-10 12:15:00,42.4,16.7,30.18,NNW,338,2.9,2.9,35,0.00,,---,0.00,VWS V14.01,2013-02-10 17:15:00,
2013-02-10 12:19:00,44.1,20.1,30.18,WNW,292,0.0,1.6,38,0.00,,---,0.00,VWS V14.01,2013-02-10 17:19:00,
2013-02-10 12:24:00,44.2,18.3,30.18,SSE,158,1.3,1.3,35,0.00,,---,0.00,VWS V14.01,2013-02-10 17:24:00,
2013-02-10 12:30:00,45.0,17.6,30.15,ENE,68,1.3,1.3,33,0.00,,---,0.00,VWS V14.01,2013-02-10 17:30:00,
2013-02-10 12:34:00,45.5,19.5,30.15,ESE,112,2.2,3.1,35,0.00,,---,0.00,VWS V14.01,2013-02-10 17:34:00,
2013-02-10 12:40:00,44.4,17.1,30.15,ESE,112,3.1,3.1,33,0.00,,---,0.00,VWS V14.01,2013-02-10 17:40:00,
2013-02-10 12:45:00,46.8,21.9,30.15,NNW,338,1.1,2.5,37,0.00,,---,0.00,VWS V14.01,2013-02-10 17:45:00,
2013-02-10 12:50:00,46.6,19.7,30.15,NE,45,1.3,2.5,34,0.00,,---,0.00,VWS V14.01,2013-02-10 17:50:00,
2013-02-10 12:54:00,46.6,19.7,30.15,ESE,112,2.5,2.5,34,0.00,,---,0.00,VWS V14.01,2013-02-10 17:54:00,
2013-02-10 13:00:00,45.9,20.4,30.15,SSE,158,2.5,2.5,36,0.00,,---,0.00,VWS V14.01,2013-02-10 18:00:00,
2013-02-10 13:05:00,46.0,19.9,30.15,SSE,158,2.5,2.5,35,0.00,,---,0.00,VWS V14.01,2013-02-10 18:05:00,
2013-02-10 13:10:00,46.4,20.9,30.15,South,180,1.1,2.9,36,0.00,,---,0.00,VWS V14.01,2013-02-10 18:10:00,
2013-02-10 13:15:00,45.3,19.3,30.15,SSE,158,2.2,2.7,35,0.00,,---,0.00,VWS V14.01,2013-02-10 18:15:00,
2013-02-10 13:20:00,44.8,18.8,30.15,East,90,0.9,2.0,35,0.00,,---,0.00,VWS V14.01,2013-02-10 18:20:00,
2013-02-10 13:24:00,43.9,17.4,30.15,SSE,158,3.1,3.1,34,0.00,,---,0.00,VWS V14.01,2013-02-10 18:24:00,
2013-02-10 13:29:00,43.2,16.0,30.15,SW,225,1.6,2.2,33,0.00,,---,0.00,VWS V14.01,2013-02-10 18:29:00,
2013-02-10 13:34:00,45.0,19.0,30.15,South,180,2.0,2.0,35,0.00,,---,0.00,VWS V14.01,2013-02-10 18:34:00,
2013-02-10 13:39:00,43.7,17.2,30.15,SSW,202,3.4,3.4,34,0.00,,---,0.00,VWS V14.01,2013-02-10 18:39:00,
2013-02-10 13:44:00,44.8,18.8,30.15,SSW,202,2.9,2.9,35,0.00,,---,0.00,VWS V14.01,2013-02-10 18:44:00,
2013-02-10 13:49:00,44.2,18.3,30.15,SSE,158,2.0,3.1,35,0.00,,---,0.00,VWS V14.01,2013-02-10 18:49:00,
2013-02-10 13:54:00,45.0,19.6,30.15,SSW,202,3.1,4.0,36,0.00,,---,0.00,VWS V14.01,2013-02-10 18:54:00,
2013-02-10 13:59:00,44.2,19.0,30.15,ESE,112,2.7,2.7,36,0.00,,---,0.00,VWS V14.01,2013-02-10 18:59:00,
2013-02-10 14:04:00,43.9,18.7,30.15,SSE,158,1.1,2.5,36,0.00,,---,0.00,VWS V14.01,2013-02-10 19:04:00,
2013-02-10 14:09:00,43.5,18.4,30.15,ENE,68,2.5,2.5,36,0.00,,---,0.00,VWS V14.01,2013-02-10 19:09:00,
2013-02-10 14:14:00,42.4,17.4,30.15,ESE,112,2.0,2.0,36,0.00,,---,0.00,VWS V14.01,2013-02-10 19:14:00,
2013-02-10 14:19:00,42.3,17.9,30.15,ESE,112,2.5,2.5,37,0.00,,---,0.00,VWS V14.01,2013-02-10 19:19:00,
2013-02-10 14:24:00,42.3,18.5,30.15,SE,135,2.7,3.1,38,0.00,,---,0.00,VWS V14.01,2013-02-10 19:24:00,
2013-02-10 14:29:00,42.1,17.7,30.15,SSE,158,1.3,2.2,37,0.00,,---,0.00,VWS V14.01,2013-02-10 19:29:00,
2013-02-10 14:34:00,41.7,18.0,30.15,SSW,202,1.3,2.2,38,0.00,,---,0.00,VWS V14.01,2013-02-10 19:34:00,
2013-02-10 14:39:00,41.2,16.9,30.15,South,180,1.6,1.6,37,0.00,,---,0.00,VWS V14.01,2013-02-10 19:39:00,
2013-02-10 14:44:00,41.0,17.4,30.15,SSE,158,3.1,3.1,38,0.00,,---,0.00,VWS V14.01,2013-02-10 19:44:00,
2013-02-10 14:49:00,41.2,17.5,30.15,SSE,158,2.0,2.7,38,0.00,,---,0.00,VWS V14.01,2013-02-10 19:49:00,
2013-02-10 14:54:00,40.6,17.0,30.15,SSW,202,2.7,2.7,38,0.00,,---,0.00,VWS V14.01,2013-02-10 19:54:00,
2013-02-10 14:59:00,41.4,17.7,30.12,South,180,2.7,2.7,38,0.00,,---,0.00,VWS V14.01,2013-02-10 19:59:00,
2013-02-10 15:04:00,41.4,17.7,30.12,SSW,202,4.0,4.0,38,0.00,,---,0.00,VWS V14.01,2013-02-10 20:04:00,
2013-02-10 15:09:00,41.2,18.1,30.12,SSW,202,2.5,2.9,39,0.00,,---,0.00,VWS V14.01,2013-02-10 20:09:00,
2013-02-10 15:14:00,40.8,17.8,30.12,SSW,202,4.3,4.3,39,0.00,,---,0.00,VWS V14.01,2013-02-10 20:14:00,
2013-02-10 15:19:00,40.1,17.1,30.12,SSW,202,2.5,2.5,39,0.00,,---,0.00,VWS V14.01,2013-02-10 20:19:00,
2013-02-10 15:24:00,40.3,17.9,30.12,SSW,202,2.7,3.1,40,0.00,,---,0.00,VWS V14.01,2013-02-10 20:24:00,
2013-02-10 15:29:00,39.9,17.6,30.12,South,180,2.7,2.7,40,0.00,,---,0.00,VWS V14.01,2013-02-10 20:29:00,
2013-02-10 15:34:00,39.4,17.1,30.12,SSE,158,3.4,3.4,40,0.00,,---,0.00,VWS V14.01,2013-02-10 20:34:00,
2013-02-10 15:39:00,39.4,17.1,30.12,SSE,158,2.9,3.1,40,0.00,,---,0.00,VWS V14.01,2013-02-10 20:39:00,
2013-02-10 15:44:00,38.7,17.0,30.12,SSE,158,3.1,3.1,41,0.00,,---,0.00,VWS V14.01,2013-02-10 20:44:00,
2013-02-10 15:49:00,38.7,16.4,30.12,SSW,202,1.3,2.9,40,0.00,,---,0.00,VWS V14.01,2013-02-10 20:49:00,
2013-02-10 15:54:00,38.5,16.3,30.12,SSW,202,2.5,2.5,40,0.00,,---,0.00,VWS V14.01,2013-02-10 20:54:00,
2013-02-10 15:59:00,37.6,15.5,30.12,SSE,158,2.5,2.5,40,0.00,,---,0.00,VWS V14.01,2013-02-10 20:59:00,
2013-02-10 16:04:00,37.2,15.7,30.12,SSW,202,3.1,3.1,41,0.00,,---,0.00,VWS V14.01,2013-02-10 21:04:00,
2013-02-10 16:09:00,37.4,15.9,30.12,SSW,202,2.9,3.8,41,0.00,,---,0.00,VWS V14.01,2013-02-10 21:09:00,
2013-02-10 16:14:00,37.0,16.1,30.12,SSE,158,2.7,3.8,42,0.00,,---,0.00,VWS V14.01,2013-02-10 21:14:00,
2013-02-10 16:19:00,37.0,16.6,30.12,SSW,202,3.1,3.1,43,0.00,,---,0.00,VWS V14.01,2013-02-10 21:19:00,
2013-02-10 16:24:00,37.0,16.6,30.12,SSW,202,3.6,3.6,43,0.00,,---,0.00,VWS V14.01,2013-02-10 21:24:00,
2013-02-10 16:29:00,36.9,17.0,30.09,SSE,158,3.4,3.4,44,0.00,,---,0.00,VWS V14.01,2013-02-10 21:29:00,
2013-02-10 16:34:00,36.7,16.8,30.09,SSW,202,2.5,2.7,44,0.00,,---,0.00,VWS V14.01,2013-02-10 21:34:00,
2013-02-10 16:39:00,35.8,16.5,30.09,SSE,158,1.3,3.4,45,0.00,,---,0.00,VWS V14.01,2013-02-10 21:39:00,
2013-02-10 16:44:00,35.2,16.5,30.09,SSE,158,1.3,1.3,46,0.00,,---,0.00,VWS V14.01,2013-02-10 21:44:00,
2013-02-10 16:49:00,35.4,17.2,30.09,South,180,2.5,2.5,47,0.00,,---,0.00,VWS V14.01,2013-02-10 21:49:00,
2013-02-10 16:54:00,35.2,17.0,30.09,SSW,202,2.9,2.9,47,0.00,,---,0.00,VWS V14.01,2013-02-10 21:54:00,
2013-02-10 16:59:00,34.9,16.7,30.12,SSW,202,2.2,2.2,47,0.00,,---,0.00,VWS V14.01,2013-02-10 21:59:00,
2013-02-10 17:04:00,34.5,16.9,30.12,SSW,202,2.7,2.7,48,0.00,,---,0.00,VWS V14.01,2013-02-10 22:04:00,
2013-02-10 17:09:00,34.3,16.7,30.12,SSW,202,1.3,1.6,48,0.00,,---,0.00,VWS V14.01,2013-02-10 22:09:00,
2013-02-10 17:14:00,33.4,16.4,30.12,SSW,202,2.7,2.7,49,0.00,,---,0.00,VWS V14.01,2013-02-10 22:14:00,
2013-02-10 17:19:00,33.3,16.6,30.12,SSW,202,2.7,2.7,50,0.00,,---,0.00,VWS V14.01,2013-02-10 22:19:00,
2013-02-10 17:24:00,33.1,16.5,30.12,SSW,202,1.3,1.6,50,0.00,,---,0.00,VWS V14.01,2013-02-10 22:24:00,
2013-02-10 17:29:00,32.5,16.0,30.09,SSW,202,1.1,1.1,50,0.00,,---,0.00,VWS V14.01,2013-02-10 22:29:00,
2013-02-10 17:34:00,31.5,15.4,30.09,SSW,202,0.9,1.1,51,0.00,,---,0.00,VWS V14.01,2013-02-10 22:34:00,
2013-02-10 17:39:00,31.5,15.9,30.09,SSW,202,1.3,1.6,52,0.00,,---,0.00,VWS V14.01,2013-02-10 22:39:00,
2013-02-10 17:44:00,31.5,15.9,30.12,South,180,0.0,0.0,52,0.00,,---,0.00,VWS V14.01,2013-02-10 22:44:00,
2013-02-10 17:49:00,31.6,16.0,30.12,SSW,202,1.6,2.5,52,0.00,,---,0.00,VWS V14.01,2013-02-10 22:49:00,
2013-02-10 17:54:00,31.5,16.3,30.12,SSW,202,3.1,3.1,53,0.00,,---,0.00,VWS V14.01,2013-02-10 22:54:00,
2013-02-10 17:59:00,31.5,16.3,30.12,SSW,202,1.1,1.6,53,0.00,,---,0.00,VWS V14.01,2013-02-10 22:59:00,
2013-02-10 18:04:00,31.1,16.4,30.12,WSW,248,2.0,2.0,54,0.00,,---,0.00,VWS V14.01,2013-02-10 23:04:00,
2013-02-10 18:09:00,31.1,16.4,30.12,SSW,202,3.4,3.4,54,0.00,,---,0.00,VWS V14.01,2013-02-10 23:09:00,
2013-02-10 18:14:00,30.9,16.2,30.12,SW,225,1.6,2.2,54,0.00,,---,0.00,VWS V14.01,2013-02-10 23:14:00,
2013-02-10 18:19:00,30.7,16.5,30.12,SSW,202,1.3,1.6,55,0.00,,---,0.00,VWS V14.01,2013-02-10 23:19:00,
2013-02-10 18:24:00,30.6,16.3,30.12,SSW,202,2.5,2.5,55,0.00,,---,0.00,VWS V14.01,2013-02-10 23:24:00,
2013-02-10 18:29:00,30.7,16.9,30.12,SSW,202,2.5,2.5,56,0.00,,---,0.00,VWS V14.01,2013-02-10 23:29:00,
2013-02-10 18:34:00,30.6,16.7,30.12,WSW,248,1.6,1.6,56,0.00,,---,0.00,VWS V14.01,2013-02-10 23:34:00,
2013-02-10 18:39:00,30.4,16.6,30.12,WSW,248,2.5,2.9,56,0.00,,---,0.00,VWS V14.01,2013-02-10 23:39:00,
2013-02-10 18:44:00,30.4,17.0,30.12,WSW,248,2.7,2.7,57,0.00,,---,0.00,VWS V14.01,2013-02-10 23:44:00,
2013-02-10 18:49:00,30.6,17.1,30.12,West,270,2.5,3.1,57,0.00,,---,0.00,VWS V14.01,2013-02-10 23:49:00,
2013-02-10 18:54:00,30.6,17.6,30.12,WSW,248,1.6,1.6,58,0.00,,---,0.00,VWS V14.01,2013-02-10 23:54:00,
2013-02-10 18:59:00,30.6,18.0,30.12,SSW,202,1.6,1.6,59,0.00,,---,0.00,VWS V14.01,2013-02-10 23:59:00,
2013-02-10 19:04:00,30.6,17.6,30.12,WSW,248,1.3,1.3,58,0.00,,---,0.00,VWS V14.01,2013-02-11 00:04:00,
2013-02-10 19:09:00,30.6,17.6,30.12,SSW,202,2.2,3.8,58,0.00,,---,0.00,VWS V14.01,2013-02-11 00:09:00,
2013-02-10 19:14:00,30.7,18.1,30.12,SSW,202,1.6,1.6,59,0.00,,---,0.00,VWS V14.01,2013-02-11 00:14:00,
2013-02-10 19:19:00,30.7,18.1,30.12,SW,225,1.3,2.5,59,0.00,,---,0.00,VWS V14.01,2013-02-11 00:19:00,
2013-02-10 19:24:00,30.9,18.3,30.12,SSW,202,2.0,2.0,59,0.00,,---,0.00,VWS V14.01,2013-02-11 00:24:00,
2013-02-10 19:29:00,30.7,18.1,30.09,SSW,202,3.4,3.4,59,0.00,,---,0.00,VWS V14.01,2013-02-11 00:29:00,
2013-02-10 19:34:00,30.6,18.0,30.09,SSW,202,1.3,1.3,59,0.00,,---,0.00,VWS V14.01,2013-02-11 00:34:00,
2013-02-10 19:39:00,30.6,18.0,30.09,WSW,248,2.0,2.0,59,0.00,,---,0.00,VWS V14.01,2013-02-11 00:39:00,
2013-02-10 19:44:00,30.2,18.0,30.12,WSW,248,2.7,2.7,60,0.00,,---,0.00,VWS V14.01,2013-02-11 00:44:00,
2013-02-10 19:49:00,30.2,18.0,30.12,WSW,248,2.5,2.5,60,0.00,,---,0.00,VWS V14.01,2013-02-11 00:49:00,
2013-02-10 19:54:00,30.2,18.0,30.12,SSW,202,2.5,2.5,60,0.00,,---,0.00,VWS V14.01,2013-02-11 00:54:00,
2013-02-10 19:59:00,30.0,17.8,30.12,SW,225,0.9,0.9,60,0.00,,---,0.00,VWS V14.01,2013-02-11 00:59:00,
2013-02-10 20:04:00,29.5,17.3,30.12,SSW,202,1.3,1.3,60,0.00,,---,0.00,VWS V14.01,2013-02-11 01:04:00,
2013-02-10 20:09:00,29.5,17.3,30.12,SSW,202,0.9,2.0,60,0.00,,---,0.00,VWS V14.01,2013-02-11 01:09:00,
2013-02-10 20:14:00,29.3,17.1,30.09,SSE,158,0.0,1.6,60,0.00,,---,0.00,VWS V14.01,2013-02-11 01:14:00,
2013-02-10 20:19:00,29.5,17.3,30.09,SSW,202,1.1,2.2,60,0.00,,---,0.00,VWS V14.01,2013-02-11 01:19:00,
2013-02-10 20:24:00,29.8,17.7,30.09,SSW,202,1.1,1.3,60,0.00,,---,0.00,VWS V14.01,2013-02-11 01:24:00,
2013-02-10 20:29:00,29.8,17.7,30.09,SSW,202,0.9,1.6,60,0.00,,---,0.00,VWS V14.01,2013-02-11 01:29:00,
2013-02-10 20:34:00,29.7,17.1,30.09,WSW,248,2.7,2.7,59,0.00,,---,0.00,VWS V14.01,2013-02-11 01:34:00,
2013-02-10 20:39:00,29.7,17.5,30.09,SW,225,2.0,2.0,60,0.00,,---,0.00,VWS V14.01,2013-02-11 01:39:00,
2013-02-10 20:44:00,29.8,17.7,30.12,WSW,248,2.9,2.9,60,0.00,,---,0.00,VWS V14.01,2013-02-11 01:44:00,
2013-02-10 20:49:00,30.2,18.0,30.12,WSW,248,2.0,2.0,60,0.00,,---,0.00,VWS V14.01,2013-02-11 01:49:00,
2013-02-10 20:54:00,30.4,18.2,30.12,SW,225,1.6,2.0,60,0.00,,---,0.00,VWS V14.01,2013-02-11 01:54:00,
2013-02-10 20:59:00,30.6,18.3,30.12,WSW,248,1.1,1.6,60,0.00,,---,0.00,VWS V14.01,2013-02-11 01:59:00,
2013-02-10 21:04:00,30.9,18.7,30.12,WSW,248,1.6,1.6,60,0.00,,---,0.00,VWS V14.01,2013-02-11 02:04:00,
2013-02-10 21:09:00,31.1,18.9,30.12,WNW,292,1.3,1.3,60,0.00,,---,0.00,VWS V14.01,2013-02-11 02:09:00,
2013-02-10 21:14:00,31.3,19.0,30.12,WSW,248,3.4,3.4,60,0.00,,---,0.00,VWS V14.01,2013-02-11 02:14:00,
2013-02-10 21:19:00,31.5,19.2,30.12,WSW,248,2.0,2.0,60,0.00,,---,0.00,VWS V14.01,2013-02-11 02:19:00,
2013-02-10 21:24:00,31.6,19.4,30.12,WSW,248,2.0,2.0,60,0.00,,---,0.00,VWS V14.01,2013-02-11 02:24:00,
2013-02-10 21:29:00,31.8,19.5,30.09,SSW,202,1.1,1.1,60,0.00,,---,0.00,VWS V14.01,2013-02-11 02:29:00,
2013-02-10 21:34:00,32.0,19.7,30.09,WSW,248,1.3,1.3,60,0.00,,---,0.00,VWS V14.01,2013-02-11 02:34:00,
2013-02-10 21:39:00,32.2,20.3,30.09,WSW,248,0.0,0.9,61,0.00,,---,0.00,VWS V14.01,2013-02-11 02:39:00,
2013-02-10 21:44:00,32.2,20.3,30.09,SW,225,0.0,0.0,61,0.00,,---,0.00,VWS V14.01,2013-02-11 02:44:00,
2013-02-10 21:49:00,32.4,20.0,30.09,SSW,202,1.3,1.3,60,0.00,,---,0.00,VWS V14.01,2013-02-11 02:49:00,
2013-02-10 21:54:00,32.5,20.2,30.09,SSW,202,2.2,2.2,60,0.00,,---,0.00,VWS V14.01,2013-02-11 02:54:00,
2013-02-10 21:59:00,32.5,20.2,30.09,SSW,202,0.0,1.3,60,0.00,,---,0.00,VWS V14.01,2013-02-11 02:59:00,
2013-02-10 22:04:00,32.7,20.4,30.09,SSW,202,0.0,0.0,60,0.00,,---,0.00,VWS V14.01,2013-02-11 03:04:00,
2013-02-10 22:09:00,32.7,20.4,30.09,SW,225,2.5,2.5,60,0.00,,---,0.00,VWS V14.01,2013-02-11 03:09:00,
2013-02-10 22:14:00,32.7,20.8,30.09,SSW,202,0.9,1.3,61,0.00,,---,0.00,VWS V14.01,2013-02-11 03:14:00,
2013-02-10 22:19:00,32.7,20.8,30.09,SSW,202,2.0,2.0,61,0.00,,---,0.00,VWS V14.01,2013-02-11 03:19:00,
2013-02-10 22:24:00,32.9,20.9,30.09,SW,225,1.3,1.3,61,0.00,,---,0.00,VWS V14.01,2013-02-11 03:24:00,
2013-02-10 22:29:00,33.1,21.1,30.09,SSW,202,0.9,1.6,61,0.00,,---,0.00,VWS V14.01,2013-02-11 03:29:00,
2013-02-10 22:34:00,33.3,21.3,30.09,SSW,202,1.6,1.6,61,0.00,,---,0.00,VWS V14.01,2013-02-11 03:34:00,
2013-02-10 22:39:00,33.3,21.3,30.09,SSW,202,1.3,1.3,61,0.00,,---,0.00,VWS V14.01,2013-02-11 03:39:00,
2013-02-10 22:44:00,33.4,21.5,30.06,SSW,202,2.7,2.7,61,0.00,,---,0.00,VWS V14.01,2013-02-11 03:44:00,
2013-02-10 22:49:00,33.4,21.5,30.06,SSW,202,2.9,2.9,61,0.00,,---,0.00,VWS V14.01,2013-02-11 03:49:00,
2013-02-10 22:54:00,33.6,21.2,30.06,SSW,202,1.6,3.1,60,0.00,,---,0.00,VWS V14.01,2013-02-11 03:54:00,
2013-02-10 22:59:00,33.6,21.2,30.06,SSW,202,1.6,1.6,60,0.00,,---,0.00,VWS V14.01,2013-02-11 03:59:00,
2013-02-10 23:04:00,33.8,21.4,30.06,SW,225,2.7,2.7,60,0.00,,---,0.00,VWS V14.01,2013-02-11 04:04:00,
2013-02-10 23:09:00,33.8,21.8,30.06,SSW,202,2.0,2.5,61,0.00,,---,0.00,VWS V14.01,2013-02-11 04:09:00,
2013-02-10 23:14:00,33.8,21.8,30.06,SSW,202,2.9,2.9,61,0.00,,---,0.00,VWS V14.01,2013-02-11 04:14:00,
2013-02-10 23:19:00,33.8,21.8,30.06,SSW,202,1.1,1.1,61,0.00,,---,0.00,VWS V14.01,2013-02-11 04:19:00,
2013-02-10 23:24:00,34.0,22.0,30.06,SSW,202,2.2,2.2,61,0.00,,---,0.00,VWS V14.01,2013-02-11 04:24:00,
2013-02-10 23:29:00,34.0,22.4,30.06,SSW,202,2.0,2.0,62,0.00,,---,0.00,VWS V14.01,2013-02-11 04:29:00,
2013-02-10 23:34:00,34.0,22.4,30.06,SSW,202,1.3,2.5,62,0.00,,---,0.00,VWS V14.01,2013-02-11 04:34:00,
2013-02-10 23:39:00,34.2,22.9,30.06,SSW,202,0.9,0.9,63,0.00,,---,0.00,VWS V14.01,2013-02-11 04:39:00,
2013-02-10 23:44:00,34.2,23.3,30.06,SSW,202,2.0,2.0,64,0.00,,---,0.00,VWS V14.01,2013-02-11 04:44:00,
2013-02-10 23:49:00,34.2,23.3,30.06,SW,225,1.3,2.0,64,0.00,,---,0.00,VWS V14.01,2013-02-11 04:49:00,
2013-02-10 23:54:00,34.3,23.8,30.06,SSW,202,2.0,2.0,65,0.00,,---,0.00,VWS V14.01,2013-02-11 04:54:00,
2013-02-10 23:59:00,34.3,23.8,30.09,SW,225,1.1,1.3,65,0.00,,---,0.00,VWS V14.01,2013-02-11 04:59:00,